Location: Cargill Incorporated Elevator
(42.7294°N, 93.7333°W)
Time: 05:25:38
(UTC+00:00)

IGS 5A - Pass Details

Date: 19 January 2026
Orbit: 551 x 554 km, 97.4° (Epoch: 8 January)

Event Time Altitude Azimuth Distance (km) Brightness Sun altitude
Rises 12:08:04 0° 11° (N) 2,737 6.9 -16.7°
Reaches altitude 10° 12:10:12 10° 11° (N) 1,838 6.0 -16.4°
Maximum altitude 12:14:11 86° 286° (WNW) 560 3.2 -15.6°
Drops below altitude 10° 12:18:08 10° 195° (SSW) 1,824 6.0 -14.9°
Sets 12:20:15 0° 195° (SSW) 2,713 6.9 -14.6°
